HULIANWANG DIGUI-55

导读

HULIANWANG DIGUI-55是中国于2025年8月4日发射的卫星,从命名判断属于低轨互联网卫星星座组网卫星,该星座旨在构建全球覆盖的卫星互联网通信网络,可为全球各地用户提供全天候、无缝衔接的宽带互联网接入服务,助力偏远地区网络覆盖,补充地面通信基础设施,推动天地一体化信息网络建设。

基本信息
目录编号:
65112
目录名称:
HULIANWANG DIGUI-55
国际标识:
2025-168G
轨道中心:
EARTH
卫星名称:
HULIANWANG DIGUI-55
卫星全名:
HULIANWANG DIGUI-55
卫星状态:
在轨 (已飞行312 天)
发射日期:
2025-08-04 UTC
国别 :
中国 (CN)
星等 :
--
轨道信息
数据来源 国际轨道数据 AOE轨道数据
星历时间 2026-06-12T13:35:11+0800
14小时前
查看轨道信息
2026-06-11T02:00:00+0800
2天前
查看轨道信息
半长轴 7527.466km 7527.442km
偏心率 0.0012171 0.0011718
轨道倾角 50.001° 50.000°
近地点辐角 79.896° 73.207°
升交点赤经 343.275° 348.593°
平近点角 280.329° 26.758°
近地点 1140.167km 1140.484km
远地点 1158.491km 1158.126km
周期 108.326分钟 108.326分钟
每日圈数 13.293201 13.293265
详细信息
使用方式:
暂无
2D轨道图
3D轨道图
轨道高度分析图
轨道倾角分析图
轨道综合分析图
查看轨道综合分析图